星链-32691 (STARLINK-32691)

导读

STARLINK-32691是美国于2025年1月6日8时发射的星链卫星,隶属于SpaceX公司的星链星座计划。该计划旨在构建全球卫星互联网星座,为全球提供高速低延迟网络服务,尤其覆盖偏远地区,STARLINK-32691加入后将进一步扩容星链网络,完善全球通信覆盖。

Basic Information
目录编号:
62501
目录名称:
STARLINK-32691
国际标识:
2025-003Q
轨道中心:
EARTH
卫星名称:
星链-32691
卫星全名:
星链-32691 (STARLINK-32691)
卫星状态:
在轨 (已飞行613 天)
发射日期:
2025-01-06 UTC
国别 :
美国 (US)
星等 :
--
This satellite is enrolled in the Space Conjunction Data Service (SCDS) and the current flight risk assessment level is: High Risk
Orbit Information
数据来源 国际轨道数据 AOE轨道数据
星历时间 2026-09-10T19:34:57+0800
20小时前
查看轨道信息
2026-09-10T07:00:00+0800
1天前
查看轨道信息
半长轴 6861.077km 6861.216km
偏心率 0.0001443 0.0002748
轨道倾角 43.001° 43.002°
近地点辐角 267.131° 209.486°
升交点赤经 325.323° 328.283°
平近点角 92.938° 144.031°
近地点 481.949km 481.193km
远地点 483.931km 484.965km
周期 94.264分钟 94.267分钟
每日圈数 15.276166 15.275703
Detailed Information
固有亮度:
5
最大亮度:
2.5
卫星平台:
Starlink V1.0
覆盖范围:
全球
运营商:
太空探索技术公司
运营商所在国:
美国
制造商(研发单位):
太空探索技术公司
制造商所在国:
美国
使用方式:
暂无
Satellite Introduction
Starlink 计划是 SpaceX 推出的全球卫星互联网项目,通过发射低轨道卫星,为全球尤其是偏远地区提供高速、低延迟的互联网服务。自 2019 年起,Starlink 已部署数千颗卫星,旨在缩小全球数字鸿沟,推动互联网普及。该项目还为军事、航空等行业提供通信支持,带来广泛经济效益。
2D Orbit Map
3D Orbit Map
Orbit Altitude Analysis Chart
Orbit Inclination Analysis Chart
Orbit Comprehensive Analysis Chart
View Comprehensive Chart
Conjunction Data List
Event ID Objects TCA Miss Dist (km) Collision Risk Probability Collision Risk Index (CRI) Action
CDM_260913-110606-250106-273521
2026-09-13T
11:06:34+0000
0.160 km
中距离
8.428535E-4 高风险 0.94
CDM_260912-115506-250106-657921
2026-09-12T
11:55:52+0000
0.236 km
中距离
4.549493E-4 高风险 0.88
CDM_260912-133006-250106-657921
2026-09-12T
13:30:01+0000
0.386 km
远距离
1.966376E-4 高风险 0.81
CDM_260912-104706-250106-273521
2026-09-12T
10:47:18+0000
0.478 km
远距离
1.760289E-4 高风险 0.8
CDM_260913-010205-651006-250121
2026-09-13T
01:02:29+0000
0.627 km
远距离
6.810132E-5 中风险 0.72
CDM_260913-043705-760606-250121
2026-09-13T
04:37:19+0000
0.733 km
远距离
5.755702E-5 中风险 0.7
CDM_260912-175805-651006-250121
2026-09-12T
17:58:48+0000
0.720 km
远距离
4.494538E-5 中风险 0.68
CDM_260913-184505-687606-250121
2026-09-13T
18:45:19+0000
0.796 km
远距离
4.470642E-5 中风险 0.68
CDM_260912-102106-250106-657921
2026-09-12T
10:21:43+0000
0.740 km
远距离
3.48779E-5 中风险 0.66
CDM_260913-192805-599406-250121
2026-09-13T
19:28:11+0000
0.927 km
远距离
2.560297E-5 中风险 0.63
Miss Distance Evolution Trend with All Objects
Collision Probability Evolution Trend with All Objects